Location: Coopersdale
(40.3556°N, 78.9372°W)
Time: 01:50:35
(UTC+00:00)

Transit 4A - Pass Details

Date: 26 January 2021
Orbit: 867 x 978 km, 66.8° (Epoch: 07 March)

Event Time Altitude Azimuth Distance (km) Brightness Sun altitude
Rises 00:42:43 0° 232° (SW) 3,661 11.8 -26.0°
Reaches altitude 10° 00:45:28 10° 240° (WSW) 2,721 11.1 -26.5°
Maximum altitude 00:51:22 39° 308° (NW) 1,436 9.2 -27.6°
Enters shadow 00:55:40 18° 8° (N) 2,208 9.7 -28.4°
Drops below altitude 10° 00:57:17 10° 16° (NNE) 2,717 - -28.8°
Sets 01:00:02 0° 24° (NNE) 3,656 - -29.3°
